[[{"header":{"parameterUnit":"m.s-1","parameterCategory":1,"la1":30.2991,"la2":30.254,"lo1":-89.0895,"lo2":-89.0444,"dy":0.0017,"dx":0.0017,"nx":28,"ny":28,"refTime":"2024-05-11T21:00:00:Z","depth":0,"parameterNumber":2,"parameterNumberName":"U-component_of_WINDS"},"data":[0,0,0,0,0,0,0,0,0,0,0,0,0,0,0,0,0,0,0,0,0,0,0,0,0,0,0,0,0,0,0,0,0,0,0,0,0,0,0,0,0,0,0,0,0,0,0,0,0,0,0,0,0,0,0,0,0,0,-5.9991,-5.999,0,-5.9957,-5.9957,-5.9956,-5.9853,-5.9851,-5.9848,-5.9846,-5.9815,-5.9816,-5.9817,0,0,0,0,0,0,0,0,0,0,0,0,0,-5.9968,-5.9969,-5.9991,-5.999,-5.999,-5.9957,-5.9957,-5.9956,-5.9853,-5.985,-5.9848,-5.9845,-5.9814,-5.9816,-5.9817,0,0,0,0,0,0,0,0,0,0,0,0,0,-5.9961,-5.9969,-5.9991,-5.9934,-5.9929,-5.9957,-5.9957,-5.9956,-5.9854,-5.985,-5.9847,-5.9844,-5.9814,-5.9816,-5.9818,-5.9898,0,0,-5.9823,-5.9824,0,0,0,0,0,0,0,0,-5.9961,-5.9962,-5.9943,-5.9938,-5.9932,-5.9905,-5.9937,-5.9937,-5.9855,-5.9883,-5.9846,-5.9842,-5.9848,-5.9847,-5.9848,-5.9897,-5.9895,-5.9824,-5.9825,-5.9826,-5.9826,0,0,0,0,0,0,0,-5.9962,-5.9963,-5.9977,-5.9943,-5.9936,-5.9912,-5.9907,-5.9937,-5.9885,-5.988,-5.9872,-5.987,-5.9844,-5.9847,-5.9847,-5.9895,-5.9824,-5.9825,-5.9826,-5.9827,-6.0008,-6.0011,0,0,0,0,0,0,-5.997,-5.9964,-5.9978,-5.9976,-5.9939,-5.9915,-5.9909,-5.9918,-5.9884,-5.9876,-5.9873,-5.9865,-5.9845,-5.9844,-5.9845,-5.9936,-5.9826,-5.9827,-5.9829,-6.0004,-6.0008,-6.0012,0,0,0,0,0,0,-5.997,-5.9972,-5.998,-5.9968,-5.9967,-5.9919,-5.9929,-5.9919,-5.9921,-5.9879,-5.9869,-5.9884,-5.9842,-5.9842,-5.9885,-5.9934,-5.9828,-5.983,-6.0,-6.0005,-6.001,-6.0121,0,0,0,0,0,0,-5.997,-5.9973,-6.0003,-5.9969,-5.9968,-6.002,-5.9932,-5.9921,-5.9924,-5.9914,-5.9887,-5.9879,-5.9839,-5.9883,-5.9887,-5.9935,-5.9832,-5.9995,-6.0002,-6.0009,-6.0113,-6.0129,-6.0144,0,0,0,0,0,-5.9969,-6.0036,-6.0005,-6.0007,-6.0004,-6.0023,-6.0022,-5.9974,-5.9929,-5.9958,-5.9931,-5.988,-5.9928,-5.9888,-5.9892,-5.9941,-5.9992,-6.0,-6.0008,-6.0106,-6.0126,-6.0143,0,0,0,0,0,0,-6.0077,-6.003,-5.9995,-6.0053,-6.0043,-6.0006,-6.0041,-5.9998,-6.0001,-5.9991,-5.9933,-5.9927,-5.9979,-5.9964,-5.9921,-6.0017,-5.9952,-5.9961,-6.0024,-6.0044,-6.0059,-6.0061,-5.9833,0,0,0,0,0,-6.0107,-6.0126,-6.0085,-6.014,-6.0136,-6.009,-6.0097,-6.0061,-6.0048,-6.0043,-6.0019,-6.001,-6.0023,-6.0033,-6.0042,-6.0111,-6.0103,-6.0146,-6.0162,-6.0175,-6.0183,-6.0218,-6.0236,-6.0039,-6.0039,-6.0039,0,0,-6.017,-6.0147,-6.0163,-6.0161,-6.0148,-6.017,-6.0087,-6.0113,-6.0129,-6.0048,-6.0086,-6.0069,-6.0054,-6.011,-6.0134,-6.01,-6.0236,-6.0185,-6.0196,-6.0197,-6.0228,-6.0247,-6.0263,-6.0045,-6.0044,-6.0043,0,0,-6.0295,-6.028,-6.0323,-6.0313,-6.0295,-6.0264,-6.0275,-6.0245,-6.0229,-6.0267,-6.0207,-6.0225,-6.0248,-6.024,-6.0239,-6.0362,-6.0315,-6.0367,-6.0448,-6.0482,-6.0498,-6.0511,-6.0554,-6.057,-6.0376,-6.0376,-6.0376,0,-6.0376,-6.0405,-6.0352,-6.0381,-6.0382,-6.0309,-6.0353,-6.0346,-6.0333,-6.0335,-6.0297,-6.0325,-6.031,-6.0363,-6.0393,-6.0395,-6.0405,-6.0369,-6.05,-6.0513,-6.0524,-6.0565,-6.0581,-6.0383,-6.0382,-6.0381,-6.0381,0,-6.0504,-6.0525,-6.0563,-6.055,-6.0556,-6.0593,-6.0546,-6.0558,-6.0522,-6.0495,-6.0534,-6.0514,-6.0518,-6.0528,-6.0494,-6.0576,-6.0556,-6.051,-6.0443,-6.055,-6.0587,-6.0602,-6.0392,-6.0389,-6.0387,-6.0386,0,0,-6.0696,-6.0653,-6.0668,-6.0661,-6.0636,-6.0652,-6.0686,-6.0689,-6.07,-6.0694,-6.0721,-6.0742,-6.07,-6.0699,-6.0663,-6.0693,-6.0791,-6.0643,-6.0642,-6.0671,-6.088,-6.0913,-6.0932,-6.076,-6.0763,-6.0765,-6.0881,0,-6.0813,-6.0867,-6.082,-6.0883,-6.0902,-6.0833,-6.0863,-6.0851,-6.0828,-6.0841,-6.0815,-6.083,-6.0773,-6.0772,-6.0799,-6.0773,-6.0832,-6.0764,-6.0785,-6.0786,-6.0789,-6.0951,-6.0987,-6.1097,-6.0895,-6.0897,-6.0899,0,-6.0957,-6.0956,-6.1021,-6.0991,-6.0997,-6.1024,-6.1023,-6.1036,-6.1022,-6.1003,-6.1002,-6.0958,-6.099,-6.0925,-6.0968,-6.0923,-6.0929,-6.0918,-6.0921,-6.092,-6.0848,-6.0954,-6.1131,-6.1147,-6.0921,-6.092,-6.0918,0,-6.1089,-6.1104,-6.1144,-6.1141,-6.1108,-6.1128,-6.1116,-6.1098,-6.1103,-6.1102,-6.1105,-6.1109,-6.1111,-6.1115,-6.1073,-6.103,-6.1122,-6.1054,-6.1106,-6.1108,-6.1128,-6.1127,-6.1307,-6.1134,-6.1134,-6.1134,-6.1133,0,-6.1224,-6.1266,-6.1202,-6.1227,-6.1272,-6.1219,-6.1265,-6.1246,-6.1231,-6.1251,-6.1193,-6.1214,-6.1158,-6.1173,-6.1141,-6.1181,-6.1183,-6.1168,-6.1159,-6.1172,-6.1174,-6.1174,-6.1165,-6.1138,-6.1137,-6.1136,-6.1135,0,-6.1378,-6.1337,-6.1376,-6.1341,-6.1334,-6.1369,-6.1339,-6.1361,-6.1334,-6.136,-6.1363,-6.1321,-6.1335,-6.1294,-6.1303,-6.1281,-6.1339,-6.1319,-6.1344,-6.1337,-6.1392,-6.1387,-6.1577,-6.1599,-6.1414,-6.1416,-6.1417,0,-6.1466,-6.1496,-6.1465,-6.1474,-6.1464,-6.1479,-6.1483,-6.1432,-6.1439,-6.1425,-6.1449,-6.1459,-6.1463,-6.149,-6.1461,-6.1467,-6.1445,-6.1511,-6.1445,-6.1458,-6.1444,-6.1443,-6.1445,-6.1525,-6.1527,-6.1529,-6.153,0,-6.1627,-6.1605,-6.1612,-6.1613,-6.1619,-6.1617,-6.1612,-6.1623,-6.1568,-6.1579,-6.1593,-6.1596,-6.1605,-6.1615,-6.1615,-6.1603,-6.1558,-6.1552,-6.1564,-6.1577,-6.159,-6.1583,-6.1379,-6.1547,-6.1545,-6.1544,-6.1543,-6.1542,-6.1749,-6.1773,-6.1754,-6.1764,-6.1755,-6.1751,-6.1769,-6.1744,-6.1754,-6.1755,-6.1726,-6.1745,-6.1731,-6.1726,-6.1718,-6.1734,-6.1703,-6.1722,-6.1726,-6.1731,-6.1739,-6.1589,-6.1734,-6.1733,-6.1733,-6.1732,-6.1732,0,-6.1906,-6.189,-6.19,-6.1893,-6.1902,-6.1858,-6.185,-6.186,-6.1877,-6.1867,-6.1873,-6.1888,-6.1898,-6.187,-6.1875,-6.1893,-6.1873,-6.1896,-6.1894,-6.1891,-6.1767,-6.1755,-6.1913,-6.1913,-6.1912,-6.1912,-6.1912,-6.1912,-6.1988,-6.2025,-6.2001,-6.2033,-6.2018,-6.2035,-6.2034,-6.2031,-6.2022,-6.2041,-6.2049,-6.203,-6.2012,-6.2016,-6.2023,-6.2015,-6.2019,-6.205,-6.2034,-6.1918,-6.19,-6.1883,-6.1872,-6.2052,-6.2052,-6.2157,-6.2158,-6.2159]},{"header":{"parameterUnit":"m.s-1","parameterCategory":1,"la1":30.2991,"la2":30.254,"lo1":-89.0895,"lo2":-89.0444,"dy":0.0017,"dx":0.0017,"nx":28,"ny":28,"refTime":"2024-05-11T21:00:00:Z","depth":0,"parameterNumber":3,"parameterNumberName":"V-component_of_WINDS"},"data":[0,0,0,0,0,0,0,0,0,0,0,0,0,0,0,0,0,0,0,0,0,0,0,0,0,0,0,0,0,0,0,0,0,0,0,0,0,0,0,0,0,0,0,0,0,0,0,0,0,0,0,0,0,0,0,0,0,0,-1.0384,-1.0385,0,-1.0399,-1.0399,-1.0399,-1.0374,-1.0373,-1.0373,-1.0372,-1.0388,-1.0389,-1.039,0,0,0,0,0,0,0,0,0,0,0,0,0,-1.0334,-1.0335,-1.0384,-1.0385,-1.0385,-1.0399,-1.0399,-1.0399,-1.0374,-1.0373,-1.0372,-1.0371,-1.0387,-1.0389,-1.039,0,0,0,0,0,0,0,0,0,0,0,0,0,-1.0353,-1.0336,-1.0384,-1.0374,-1.0373,-1.0399,-1.0399,-1.0399,-1.0375,-1.0373,-1.0372,-1.0371,-1.0387,-1.0388,-1.039,-1.0427,0,0,-1.0396,-1.0397,0,0,0,0,0,0,0,0,-1.0352,-1.0355,-1.0375,-1.0375,-1.0374,-1.0384,-1.0387,-1.0409,-1.0375,-1.0374,-1.0372,-1.037,-1.0387,-1.0389,-1.0395,-1.0428,-1.0428,-1.0396,-1.0397,-1.0398,-1.0398,0,0,0,0,0,0,0,-1.0351,-1.0354,-1.039,-1.0376,-1.0375,-1.0368,-1.037,-1.0391,-1.0388,-1.0374,-1.0372,-1.0374,-1.0387,-1.0393,-1.0395,-1.0429,-1.0396,-1.0397,-1.0399,-1.0399,-1.049,-1.0492,0,0,0,0,0,0,-1.0351,-1.0354,-1.039,-1.0391,-1.036,-1.037,-1.0372,-1.0382,-1.0387,-1.0387,-1.0375,-1.0373,-1.039,-1.0393,-1.0395,-1.0437,-1.0398,-1.0399,-1.0401,-1.0489,-1.0491,-1.0492,0,0,0,0,0,0,-1.035,-1.0354,-1.0389,-1.0372,-1.0376,-1.0373,-1.0384,-1.0383,-1.0389,-1.0388,-1.0388,-1.0382,-1.0389,-1.0393,-1.0419,-1.0437,-1.04,-1.0402,-1.0488,-1.049,-1.0491,-1.0522,0,0,0,0,0,0,-1.0349,-1.0354,-1.0368,-1.0372,-1.0377,-1.0413,-1.0385,-1.0384,-1.0392,-1.0389,-1.0395,-1.0394,-1.0389,-1.0416,-1.042,-1.0439,-1.0403,-1.0486,-1.0488,-1.0491,-1.0519,-1.0525,-1.0529,0,0,0,0,0,-1.0347,-1.0377,-1.0369,-1.0374,-1.0394,-1.0414,-1.0416,-1.0409,-1.0394,-1.0407,-1.0407,-1.0394,-1.0435,-1.0419,-1.0424,-1.0443,-1.0485,-1.0488,-1.0491,-1.0517,-1.0524,-1.0529,0,0,0,0,0,0,-1.0377,-1.0377,-1.0369,-1.0401,-1.0407,-1.041,-1.0427,-1.0417,-1.0428,-1.0425,-1.0415,-1.0417,-1.0444,-1.0446,-1.0429,-1.0478,-1.0457,-1.0461,-1.0475,-1.0482,-1.0487,-1.0485,-1.0405,0,0,0,0,0,-1.0387,-1.0402,-1.0403,-1.0431,-1.0434,-1.043,-1.0439,-1.0432,-1.0438,-1.0441,-1.0443,-1.0449,-1.0463,-1.0473,-1.0486,-1.052,-1.052,-1.0535,-1.054,-1.0544,-1.0548,-1.0564,-1.0571,-1.0502,-1.0502,-1.0502,0,0,-1.0408,-1.041,-1.0421,-1.0437,-1.0441,-1.0457,-1.0433,-1.0452,-1.0463,-1.0444,-1.0468,-1.047,-1.0476,-1.0506,-1.0519,-1.0509,-1.0567,-1.0548,-1.0552,-1.0553,-1.0568,-1.0574,-1.058,-1.0504,-1.0504,-1.0503,0,0,-1.0455,-1.0459,-1.0482,-1.0486,-1.0493,-1.0489,-1.0495,-1.0498,-1.0498,-1.0522,-1.0508,-1.0521,-1.0546,-1.0551,-1.0557,-1.0604,-1.0592,-1.0608,-1.0635,-1.0651,-1.0656,-1.0661,-1.0676,-1.0682,-1.0612,-1.0612,-1.0612,0,-1.0481,-1.0504,-1.0495,-1.0514,-1.0521,-1.0504,-1.0527,-1.0531,-1.0542,-1.0547,-1.0535,-1.0564,-1.0568,-1.0597,-1.0609,-1.0614,-1.062,-1.0607,-1.0656,-1.0661,-1.0665,-1.0679,-1.0685,-1.0614,-1.0614,-1.0613,-1.0613,0,-1.0535,-1.0551,-1.0569,-1.0579,-1.0588,-1.0609,-1.0602,-1.0612,-1.0605,-1.0602,-1.0626,-1.063,-1.0642,-1.0649,-1.0642,-1.0677,-1.067,-1.0658,-1.0636,-1.0673,-1.0687,-1.0692,-1.0616,-1.0616,-1.0615,-1.0615,0,0,-1.0601,-1.0604,-1.0611,-1.0614,-1.0619,-1.0631,-1.0651,-1.0663,-1.0671,-1.0679,-1.0694,-1.0715,-1.0702,-1.0709,-1.0702,-1.0716,-1.0751,-1.0701,-1.0701,-1.0709,-1.0788,-1.0797,-1.0804,-1.0744,-1.0745,-1.0746,-1.0787,0,-1.0646,-1.068,-1.0671,-1.0704,-1.0719,-1.0702,-1.0719,-1.0723,-1.0722,-1.0733,-1.0732,-1.0746,-1.0729,-1.0732,-1.0746,-1.0744,-1.0767,-1.0741,-1.0757,-1.0758,-1.0755,-1.0811,-1.0821,-1.086,-1.0792,-1.0793,-1.0794,0,-1.0704,-1.0712,-1.0746,-1.0747,-1.0753,-1.0768,-1.0777,-1.0789,-1.0794,-1.0791,-1.0798,-1.0788,-1.0807,-1.0786,-1.0811,-1.0793,-1.0799,-1.08,-1.0801,-1.0801,-1.0778,-1.0812,-1.0872,-1.0878,-1.0802,-1.0802,-1.0801,0,-1.0746,-1.0767,-1.0789,-1.0793,-1.0795,-1.0806,-1.0807,-1.081,-1.0817,-1.0825,-1.0829,-1.084,-1.0846,-1.0854,-1.0847,-1.0832,-1.0872,-1.0851,-1.087,-1.087,-1.0879,-1.0878,-1.094,-1.0885,-1.0885,-1.0885,-1.0884,0,-1.0797,-1.0818,-1.0808,-1.0822,-1.0845,-1.0835,-1.0858,-1.0857,-1.086,-1.0873,-1.086,-1.0872,-1.0863,-1.0874,-1.0869,-1.089,-1.0893,-1.0891,-1.0889,-1.0891,-1.0891,-1.0895,-1.0891,-1.0886,-1.0886,-1.0886,-1.0885,0,-1.0849,-1.0843,-1.0866,-1.0866,-1.0866,-1.0883,-1.0882,-1.0895,-1.0891,-1.0908,-1.0911,-1.0906,-1.0919,-1.0913,-1.0927,-1.0923,-1.0949,-1.0945,-1.0948,-1.0946,-1.0965,-1.0962,-1.103,-1.1037,-1.0979,-1.0979,-1.098,0,-1.0881,-1.0897,-1.0897,-1.0905,-1.0907,-1.0919,-1.0926,-1.0916,-1.0924,-1.0929,-1.0941,-1.0952,-1.0961,-1.0982,-1.0979,-1.0989,-1.0984,-1.1007,-1.0985,-1.0987,-1.0983,-1.0981,-1.0982,-1.1011,-1.1011,-1.1012,-1.1013,0,-1.0938,-1.0934,-1.0944,-1.0952,-1.096,-1.0967,-1.0972,-1.0979,-1.097,-1.0978,-1.0991,-1.0997,-1.101,-1.1022,-1.103,-1.1031,-1.102,-1.1019,-1.1024,-1.1026,-1.1026,-1.1025,-1.0958,-1.1018,-1.1017,-1.1017,-1.1016,-1.1016,-1.098,-1.0992,-1.0994,-1.1005,-1.1008,-1.1013,-1.1024,-1.1021,-1.1031,-1.1041,-1.1035,-1.1049,-1.1052,-1.1062,-1.1065,-1.1075,-1.1066,-1.1074,-1.1075,-1.1077,-1.1078,-1.1026,-1.1077,-1.1077,-1.1077,-1.1077,-1.1077,0,-1.1035,-1.1035,-1.1045,-1.1052,-1.1061,-1.1049,-1.1054,-1.1062,-1.1074,-1.1078,-1.1086,-1.1099,-1.111,-1.1108,-1.1117,-1.1126,-1.1121,-1.1128,-1.1127,-1.1127,-1.1087,-1.1081,-1.1132,-1.1132,-1.1132,-1.1132,-1.1132,-1.1132,-1.1064,-1.1084,-1.108,-1.1101,-1.1101,-1.1114,-1.1117,-1.1121,-1.1124,-1.1139,-1.1148,-1.1146,-1.1147,-1.1156,-1.1165,-1.1164,-1.1167,-1.1177,-1.1174,-1.1136,-1.113,-1.1125,-1.112,-1.1178,-1.1178,-1.1213,-1.1213,-1.1214]}]]